Overview Statistics Trail Chart Weather Telemetry Raw packets
 

This is the latest recevied weather packets stored in our database for station/object 4S6DRJ-13. If no packets are shown the sender has not sent any weather packets the latest 10 day(s).

<< 367 368 369 370 371 372 373 >>
Time Temp. Humidity Pressure Rain* Wind** Luminosity Snow
1787912945 30° C 76% 1007.6 hPa 0 mm 2.24 m/s, 262° 504 W/m² -
1787912884 30° C 75% 1007.7 hPa 0 mm 3.13 m/s, 261° 290 W/m² -
1787912823 30° C 75% 1007.5 hPa 0 mm 1.79 m/s, 261° 265 W/m² -
1787912762 30° C 75% 1007.6 hPa 0 mm 2.24 m/s, 227° 497 W/m² -
1787912701 30° C 76% 1007.6 hPa 0 mm 2.68 m/s, 218° 585 W/m² -
1787912640 30° C 76% 1007.5 hPa 0 mm 2.24 m/s, 314° 516 W/m² -
1787912579 30° C 76% 1007.6 hPa 0 mm 1.34 m/s, 179° 685 W/m² -
1787912518 30° C 76% 1007.8 hPa 0 mm 2.24 m/s, 104° 634 W/m² -
1787912457 30.56° C 76% 1007.5 hPa 0 mm 2.68 m/s, 290° 341 W/m² -
1787912396 30.56° C 76% 1007.8 hPa 0 mm 3.58 m/s, 272° 537 W/m² -
1787912335 30.56° C 76% 1007.6 hPa 0 mm 1.79 m/s, 226° 569 W/m² -
1787912275 30.56° C 76% 1007.5 hPa 0 mm 2.24 m/s, 207° 264 W/m² -
1787912214 30.56° C 77% 1007.6 hPa 0 mm 1.79 m/s, 242° 702 W/m² -
1787912152 30.56° C 77% 1007.7 hPa 0 mm 1.79 m/s, 203° 722 W/m² -
1787912092 30.56° C 78% 1007.6 hPa 0 mm 2.24 m/s, 300° 269 W/m² -
1787912030 30° C 79% 1007.7 hPa 0 mm 0.89 m/s, 185° 707 W/m² -
1787911969 30° C 78% 1007.5 hPa 0 mm 1.79 m/s, 313° 758 W/m² -
1787911908 30° C 78% 1007.5 hPa 0 mm 1.79 m/s, 70° 778 W/m² -
1787911847 30° C 77% 1007.5 hPa 0 mm 1.34 m/s, 245° 793 W/m² -
1787911787 30° C 78% 1007.7 hPa 0 mm 0.89 m/s, 9° 376 W/m² -
1787911725 30° C 78% 1007.5 hPa 0 mm 2.24 m/s, 175° 582 W/m² -
1787911664 30° C 79% 1007.7 hPa 0 mm 2.68 m/s, 320° 707 W/m² -
1787911604 30° C 80% 1007.9 hPa 0 mm 0.45 m/s, 243° 739 W/m² -
1787911543 30° C 80% 1007.6 hPa 0 mm 1.34 m/s, 281° 766 W/m² -
1787911481 30° C 80% 1007.7 hPa 0 mm 2.24 m/s, 37° 263 W/m² -

* Rain latest hour (hover to see other rain measurements)
** Current wind speed in m/s (hover to see current wind gust speed)